Time,TemperatureF,DewpointF,PressureIn,WindDirection,WindDirectionDegrees,WindSpeedMPH,WindSpeedGustMPH,Humidity,HourlyPrecipIn,Conditions,Clouds,dailyrainin,SoftwareType,DateUTC
2013-02-24 00:01:00,41.2,37.0,30.08,ESE,112,2.2,-999.0,85,-99.99,,,0.00,Acu-Link.com,2013-02-24 08:01:00,
2013-02-24 00:17:00,41.2,36.7,30.08,SSE,157,3.2,-999.0,84,-99.99,,,0.00,Acu-Link.com,2013-02-24 08:17:00,
2013-02-24 00:32:00,41.4,36.6,30.09,ESE,112,4.7,-999.0,83,-99.99,,,0.00,Acu-Link.com,2013-02-24 08:32:00,
2013-02-24 00:47:00,41.4,36.9,30.09,East,90,3.7,-999.0,84,-99.99,,,0.00,Acu-Link.com,2013-02-24 08:47:00,
2013-02-24 01:02:00,41.4,36.6,30.09,South,180,2.2,-999.0,83,-99.99,,,0.00,Acu-Link.com,2013-02-24 09:02:00,
2013-02-24 01:18:00,41.4,36.6,30.09,South,180,2.2,-999.0,83,-99.99,,,0.00,Acu-Link.com,2013-02-24 09:18:00,
2013-02-24 01:33:00,41.5,36.7,30.09,NE,45,4.7,-999.0,83,-99.99,,,0.00,Acu-Link.com,2013-02-24 09:33:00,
2013-02-24 01:49:00,41.5,36.7,30.08,ESE,112,4.2,-999.0,83,-99.99,,,0.00,Acu-Link.com,2013-02-24 09:49:00,
2013-02-24 02:04:00,41.5,37.0,30.09,SSE,157,1.1,-999.0,84,-99.99,,,0.00,Acu-Link.com,2013-02-24 10:04:00,
2013-02-24 02:19:00,41.5,37.0,30.09,ENE,67,3.2,-999.0,84,-99.99,,,0.00,Acu-Link.com,2013-02-24 10:19:00,
2013-02-24 02:34:00,41.7,37.5,30.09,SE,135,1.7,-999.0,85,-99.99,,,0.00,Acu-Link.com,2013-02-24 10:34:00,
2013-02-24 02:49:00,41.9,37.4,30.09,SSW,202,3.2,-999.0,84,-99.99,,,0.00,Acu-Link.com,2013-02-24 10:49:00,
2013-02-24 03:04:00,41.9,37.4,30.08,SSE,157,3.2,-999.0,84,-99.99,,,0.00,Acu-Link.com,2013-02-24 11:04:00,
2013-02-24 03:19:00,41.9,37.4,30.09,SSE,157,1.7,-999.0,84,-99.99,,,0.00,Acu-Link.com,2013-02-24 11:19:00,
2013-02-24 03:35:00,42.1,37.6,30.09,East,90,2.2,-999.0,84,-99.99,,,0.00,Acu-Link.com,2013-02-24 11:35:00,
2013-02-24 03:50:00,42.1,37.6,30.09,SE,135,2.2,-999.0,84,-99.99,,,0.00,Acu-Link.com,2013-02-24 11:50:00,
2013-02-24 04:05:00,42.1,37.6,30.09,SE,135,2.7,-999.0,84,-99.99,,,0.00,Acu-Link.com,2013-02-24 12:05:00,
2013-02-24 04:20:00,41.9,37.4,30.08,SSW,202,2.2,-999.0,84,-99.99,,,0.00,Acu-Link.com,2013-02-24 12:20:00,
2013-02-24 04:50:00,41.9,37.4,30.08,ESE,112,2.2,-999.0,84,-99.99,,,0.00,Acu-Link.com,2013-02-24 12:50:00,
2013-02-24 05:05:00,41.9,37.1,30.08,South,180,2.7,-999.0,83,-99.99,,,0.00,Acu-Link.com,2013-02-24 13:05:00,
2013-02-24 05:21:00,42.1,37.0,30.07,ESE,112,3.2,-999.0,82,-99.99,,,0.00,Acu-Link.com,2013-02-24 13:21:00,
2013-02-24 05:36:00,42.1,37.0,30.07,SSE,157,2.2,-999.0,82,-99.99,,,0.00,Acu-Link.com,2013-02-24 13:36:00,
2013-02-24 05:51:00,42.1,36.7,30.07,ESE,112,1.1,-999.0,81,-99.99,,,0.00,Acu-Link.com,2013-02-24 13:51:00,
2013-02-24 06:06:00,42.3,36.6,30.07,ENE,67,1.1,-999.0,80,-99.99,,,0.00,Acu-Link.com,2013-02-24 14:06:00,
2013-02-24 06:21:00,42.3,36.6,30.06,ESE,112,1.7,-999.0,80,-99.99,,,0.00,Acu-Link.com,2013-02-24 14:21:00,
2013-02-24 06:36:00,42.4,36.7,30.06,ESE,112,2.7,-999.0,80,-99.99,,,0.00,Acu-Link.com,2013-02-24 14:36:00,
2013-02-24 06:51:00,42.8,36.4,30.05,ENE,67,2.2,-999.0,78,-99.99,,,0.00,Acu-Link.com,2013-02-24 14:51:00,
2013-02-24 07:06:00,42.8,35.8,30.05,SE,135,2.2,-999.0,76,-99.99,,,0.00,Acu-Link.com,2013-02-24 15:06:00,
2013-02-24 07:21:00,43.0,35.6,30.05,East,90,1.1,-999.0,75,-99.99,,,0.00,Acu-Link.com,2013-02-24 15:21:00,
2013-02-24 07:37:00,43.0,35.3,30.05,East,90,4.7,-999.0,74,-99.99,,,0.00,Acu-Link.com,2013-02-24 15:37:00,
2013-02-24 07:52:00,43.0,35.6,30.06,SW,225,2.7,-999.0,75,-99.99,,,0.00,Acu-Link.com,2013-02-24 15:52:00,
2013-02-24 08:07:00,43.3,35.9,30.05,SSW,202,2.2,-999.0,75,-99.99,,,0.00,Acu-Link.com,2013-02-24 16:07:00,
2013-02-24 08:22:00,43.5,36.4,30.06,ESE,112,2.7,-999.0,76,-99.99,,,0.00,Acu-Link.com,2013-02-24 16:22:00,
2013-02-24 08:37:00,43.7,36.3,30.04,East,90,4.2,-999.0,75,-99.99,,,0.00,Acu-Link.com,2013-02-24 16:37:00,
2013-02-24 08:52:00,44.2,36.1,30.05,SW,225,3.7,-999.0,73,-99.99,,,0.00,Acu-Link.com,2013-02-24 16:52:00,
2013-02-24 09:08:00,44.6,36.1,30.05,South,180,3.2,-999.0,72,-99.99,,,0.00,Acu-Link.com,2013-02-24 17:08:00,
2013-02-24 09:23:00,45.1,36.3,30.04,ESE,112,2.7,-999.0,71,-99.99,,,0.00,Acu-Link.com,2013-02-24 17:23:00,
2013-02-24 09:38:00,46.8,36.0,30.05,ESE,112,4.7,-999.0,66,-99.99,,,0.00,Acu-Link.com,2013-02-24 17:38:00,
2013-02-24 09:53:00,48.0,36.4,30.03,ESE,112,4.7,-999.0,64,-99.99,,,0.00,Acu-Link.com,2013-02-24 17:53:00,
2013-02-24 10:08:00,47.3,36.5,30.03,East,90,3.2,-999.0,66,-99.99,,,0.00,Acu-Link.com,2013-02-24 18:08:00,
2013-02-24 10:23:00,48.0,36.8,30.02,South,180,2.2,-999.0,65,-99.99,,,0.00,Acu-Link.com,2013-02-24 18:23:00,
2013-02-24 10:38:00,47.5,36.7,30.02,SE,135,6.8,-999.0,66,-99.99,,,0.00,Acu-Link.com,2013-02-24 18:38:00,
2013-02-24 10:53:00,47.1,36.7,30.01,South,180,4.2,-999.0,67,-99.99,,,0.00,Acu-Link.com,2013-02-24 18:53:00,
2013-02-24 11:09:00,47.5,37.1,30.01,South,180,5.3,-999.0,67,-99.99,,,0.00,Acu-Link.com,2013-02-24 19:09:00,
2013-02-24 11:24:00,48.0,36.8,30.01,SSW,202,3.2,-999.0,65,-99.99,,,0.00,Acu-Link.com,2013-02-24 19:24:00,
2013-02-24 11:39:00,47.8,36.6,30.00,ESE,112,6.8,-999.0,65,-99.99,,,0.00,Acu-Link.com,2013-02-24 19:39:00,
2013-02-24 11:54:00,47.7,37.3,30.00,SSW,202,3.2,-999.0,67,-99.99,,,0.00,Acu-Link.com,2013-02-24 19:54:00,
2013-02-24 12:09:00,47.5,37.5,29.99,South,180,3.7,-999.0,68,-99.99,,,0.00,Acu-Link.com,2013-02-24 20:09:00,
2013-02-24 12:24:00,47.3,37.3,29.99,SE,135,6.3,-999.0,68,-99.99,,,0.00,Acu-Link.com,2013-02-24 20:24:00,
2013-02-24 12:39:00,47.5,37.8,29.98,South,180,4.2,-999.0,69,-99.99,,,0.00,Acu-Link.com,2013-02-24 20:39:00,
2013-02-24 12:55:00,47.1,37.1,29.98,SSE,157,6.8,-999.0,68,-99.99,,,0.00,Acu-Link.com,2013-02-24 20:55:00,
2013-02-24 13:10:00,47.3,37.3,29.97,SW,225,6.3,-999.0,68,-99.99,,,0.00,Acu-Link.com,2013-02-24 21:10:00,
2013-02-24 13:25:00,47.1,36.7,29.97,SSW,202,1.1,-999.0,67,-99.99,,,0.00,Acu-Link.com,2013-02-24 21:25:00,
2013-02-24 13:40:00,47.5,36.7,29.96,ESE,112,3.7,-999.0,66,-99.99,,,0.00,Acu-Link.com,2013-02-24 21:40:00,
2013-02-24 13:55:00,47.8,36.6,29.95,SE,135,9.4,-999.0,65,-99.99,,,0.00,Acu-Link.com,2013-02-24 21:55:00,
2013-02-24 14:10:00,48.0,36.8,29.94,SE,135,2.7,-999.0,65,-99.99,,,0.00,Acu-Link.com,2013-02-24 22:10:00,
2013-02-24 14:25:00,48.2,37.0,29.93,SSW,202,3.7,-999.0,65,-99.99,,,0.00,Acu-Link.com,2013-02-24 22:25:00,
2013-02-24 14:40:00,48.4,36.8,29.92,ENE,67,3.7,-999.0,64,-99.99,,,0.00,Acu-Link.com,2013-02-24 22:40:00,
2013-02-24 14:55:00,48.4,36.8,29.92,SSE,157,3.2,-999.0,64,-99.99,,,0.00,Acu-Link.com,2013-02-24 22:55:00,
2013-02-24 15:10:00,48.7,37.1,29.91,ESE,112,3.7,-999.0,64,-99.99,,,0.00,Acu-Link.com,2013-02-24 23:10:00,
2013-02-24 15:26:00,48.0,36.8,29.91,SSW,202,2.7,-999.0,65,-99.99,,,0.00,Acu-Link.com,2013-02-24 23:26:00,
2013-02-24 15:41:00,48.0,37.2,29.90,ESE,112,4.2,-999.0,66,-99.99,,,0.00,Acu-Link.com,2013-02-24 23:41:00,
2013-02-24 15:56:00,48.0,37.2,29.89,East,90,4.7,-999.0,66,-99.99,,,0.00,Acu-Link.com,2013-02-24 23:56:00,
2013-02-24 16:11:00,47.8,36.6,29.89,SE,135,2.2,-999.0,65,-99.99,,,0.00,Acu-Link.com,2013-02-25 00:11:00,
2013-02-24 16:26:00,47.8,36.6,29.88,South,180,5.8,-999.0,65,-99.99,,,0.00,Acu-Link.com,2013-02-25 00:26:00,
2013-02-24 16:41:00,47.8,36.6,29.88,East,90,3.2,-999.0,65,-99.99,,,0.00,Acu-Link.com,2013-02-25 00:41:00,
2013-02-24 16:56:00,47.8,37.0,29.87,East,90,4.7,-999.0,66,-99.99,,,0.00,Acu-Link.com,2013-02-25 00:56:00,
2013-02-24 17:11:00,47.8,37.0,29.86,South,180,4.7,-999.0,66,-99.99,,,0.00,Acu-Link.com,2013-02-25 01:11:00,
2013-02-24 17:26:00,47.8,37.4,29.85,South,180,2.7,-999.0,67,-99.99,,,0.00,Acu-Link.com,2013-02-25 01:26:00,
2013-02-24 17:42:00,47.7,37.3,29.84,SE,135,4.2,-999.0,67,-99.99,,,0.00,Acu-Link.com,2013-02-25 01:42:00,
2013-02-24 17:57:00,47.7,36.9,29.83,SSE,157,4.2,-999.0,66,-99.99,,,0.00,Acu-Link.com,2013-02-25 01:57:00,
2013-02-24 18:12:00,47.8,36.6,29.83,SE,135,6.3,-999.0,65,-99.99,,,0.00,Acu-Link.com,2013-02-25 02:12:00,
2013-02-24 18:27:00,47.8,36.2,29.82,North,0,4.2,-999.0,64,-99.99,,,0.00,Acu-Link.com,2013-02-25 02:27:00,
2013-02-24 18:42:00,47.8,36.2,29.81,SW,225,3.7,-999.0,64,-99.99,,,0.00,Acu-Link.com,2013-02-25 02:42:00,
2013-02-24 18:57:00,47.8,35.8,29.80,SSE,157,5.8,-999.0,63,-99.99,,,0.00,Acu-Link.com,2013-02-25 02:57:00,
2013-02-24 19:12:00,47.8,35.8,29.81,SW,225,2.7,-999.0,63,-99.99,,,0.00,Acu-Link.com,2013-02-25 03:12:00,
2013-02-24 19:27:00,47.8,35.4,29.79,East,90,2.7,-999.0,62,-99.99,,,0.00,Acu-Link.com,2013-02-25 03:27:00,
2013-02-24 19:42:00,47.7,35.7,29.79,SSE,157,5.8,-999.0,63,-99.99,,,0.00,Acu-Link.com,2013-02-25 03:42:00,
2013-02-24 19:58:00,47.7,35.7,29.77,SSE,157,2.2,-999.0,63,-99.99,,,0.00,Acu-Link.com,2013-02-25 03:58:00,
2013-02-24 20:13:00,47.5,35.1,29.76,NE,45,3.2,-999.0,62,-99.99,,,0.00,Acu-Link.com,2013-02-25 04:13:00,
2013-02-24 20:28:00,47.7,34.5,29.75,ESE,112,4.7,-999.0,60,-99.99,,,0.00,Acu-Link.com,2013-02-25 04:28:00,
2013-02-24 20:43:00,47.7,34.5,29.75,South,180,1.1,-999.0,60,-99.99,,,0.00,Acu-Link.com,2013-02-25 04:43:00,
2013-02-24 20:58:00,47.7,34.5,29.74,ESE,112,4.7,-999.0,60,-99.99,,,0.00,Acu-Link.com,2013-02-25 04:58:00,
2013-02-24 21:13:00,47.7,35.3,29.74,SSW,202,5.3,-999.0,62,-99.99,,,0.00,Acu-Link.com,2013-02-25 05:13:00,
2013-02-24 21:28:00,47.7,34.9,29.74,ESE,112,3.2,-999.0,61,-99.99,,,0.00,Acu-Link.com,2013-02-25 05:28:00,
2013-02-24 21:43:00,47.7,35.7,29.73,SSE,157,3.7,-999.0,63,-99.99,,,0.00,Acu-Link.com,2013-02-25 05:43:00,
2013-02-24 21:58:00,47.1,36.3,29.71,ESE,112,4.7,-999.0,66,-99.99,,,0.00,Acu-Link.com,2013-02-25 05:58:00,
2013-02-24 22:14:00,46.9,36.1,29.71,South,180,6.3,-999.0,66,-99.99,,,0.00,Acu-Link.com,2013-02-25 06:14:00,
2013-02-24 22:29:00,46.8,36.4,29.70,SSW,202,3.7,-999.0,67,-99.99,,,0.00,Acu-Link.com,2013-02-25 06:29:00,
2013-02-24 22:44:00,46.6,36.2,29.69,NE,45,7.3,-999.0,67,-99.99,,,0.00,Acu-Link.com,2013-02-25 06:44:00,
2013-02-24 22:59:00,46.9,35.4,29.68,East,90,4.7,-999.0,64,-99.99,,,0.00,Acu-Link.com,2013-02-25 06:59:00,
2013-02-24 23:14:00,46.9,35.0,29.67,East,90,6.3,-999.0,63,-99.99,,,0.00,Acu-Link.com,2013-02-25 07:14:00,
2013-02-24 23:29:00,47.1,35.2,29.66,SE,135,3.7,-999.0,63,-99.99,,,0.00,Acu-Link.com,2013-02-25 07:29:00,
2013-02-24 23:44:00,46.2,36.2,29.65,WSW,247,3.2,-999.0,68,-99.99,,,0.00,Acu-Link.com,2013-02-25 07:44:00,
2013-02-24 23:59:00,45.7,37.2,29.65,South,180,2.7,-999.0,72,-99.99,,,0.00,Acu-Link.com,2013-02-25 07:59:00,